This demonstration page uses our WeatherBlox Daily Observations layout. Learn more.

Left ArrowRight Arrow

Hourly Observations for July 9, 2015

Temp ( °F °C ) Dew Point ( °F °C ) Humidity (%) Winds ( mph kmh ) Pressure ( in mb ) Visibility ( mi km ) Precip ( " mm )
12:15 am 00:15 Partly Cloudy 73 23 73 23 100 100 WSW 3 6 30.03 1017 10 16 0.01 0.25
12:35 am 00:35 Partly Cloudy 73 23 73 23 100 100 N N/A 30.00 1016 10 16 0.01 0.25
12:55 am 00:55 Mostly Cloudy 73 23 73 23 100 100 W 5 7 30.00 1016 10 16 0.01 0.25
1:15 am 01:15 Cloudy 73 23 73 23 100 100 WSW 5 7 30.00 1016 10 16 N/A
1:35 am 01:35 Cloudy 73 23 73 23 100 100 WSW 3 6 30.00 1016 10 16 N/A
1:55 am 01:55 Cloudy 73 23 73 23 100 100 N N/A 30.00 1016 10 16 N/A
2:15 am 02:15 Mostly Cloudy 73 23 73 23 100 100 NW 8 13 30.00 1016 10 16 N/A
2:35 am 02:35 Mostly Cloudy 73 23 73 23 100 100 W 5 7 30.00 1016 10 16 N/A
2:55 am 02:55 Mostly Cloudy 73 23 73 23 100 100 SW 3 6 30.00 1016 10 16 N/A
3:15 am 03:15 Mostly Cloudy 73 23 73 23 100 100 WSW 5 7 30.03 1017 10 16 N/A
3:35 am 03:35 Cloudy 73 23 73 23 100 100 W 5 7 30.03 1017 10 16 N/A
3:55 am 03:55 Mostly Cloudy 73 23 73 23 100 100 SW 6 9 30.03 1017 10 16 N/A
4:15 am 04:15 Partly Cloudy 73 23 73 23 100 100 W 5 7 30.03 1017 10 16 N/A
4:35 am 04:35 Mostly Cloudy 73 23 73 23 100 100 N N/A 30.03 1017 10 16 N/A
4:55 am 04:55 Mostly Cloudy 73 23 73 23 100 100 W 3 6 30.03 1017 10 16 N/A
5:15 am 05:15 Cloudy 73 23 73 23 100 100 W 6 9 30.03 1017 10 16 N/A
5:35 am 05:35 Mostly Cloudy 73 23 73 23 100 100 W 3 6 30.03 1017 10 16 N/A
5:55 am 05:55 Mostly Cloudy 73 23 73 23 100 100 WNW 6 9 30.03 1017 10 16 N/A
6:15 am 06:15 Sunny 73 23 73 23 100 100 W 7 11 30.03 1017 10 16 N/A
6:35 am 06:35 Sunny 73 23 73 23 100 100 WNW 10 17 30.03 1017 10 16 N/A
6:55 am 06:55 Sunny 73 23 73 23 100 100 SW 7 11 30.03 1017 10 16 N/A
7:15 am 07:15 Sunny 73 23 73 23 100 100 W 3 6 30.03 1017 10 16 N/A
7:35 am 07:35 Sunny 73 23 73 23 100 100 WSW 5 7 30.03 1017 10 16 N/A
7:55 am 07:55 Sunny 75 24 75 24 100 100 SW 5 7 30.03 1017 10 16 N/A
8:15 am 08:15 Sunny 77 25 77 25 100 100 WSW 5 7 30.06 1018 10 16 N/A
8:35 am 08:35 Partly Cloudy 79 26 75 24 89 89 N N/A 30.06 1018 10 16 N/A
8:55 am 08:55 Mostly Cloudy 79 26 77 25 94 94 W 3 6 30.06 1018 10 16 N/A
9:15 am 09:15 Sunny 79 26 75 24 89 89 WSW 3 6 30.06 1018 10 16 N/A
9:35 am 09:35 Sunny 79 26 77 25 94 94 W 3 6 30.03 1017 10 16 N/A
9:55 am 09:55 Sunny 81 27 73 23 79 79 SSW 12 19 30.03 1017 10 16 N/A
10:15 am 10:15 Sunny 81 27 75 24 84 84 SSW 10 17 30.03 1017 10 16 N/A
10:35 am 10:35 Sunny 82 28 75 24 79 79 SSW 13 20 30.03 1017 10 16 N/A
10:55 am 10:55 Sunny 84 29 75 24 74 74 SSW 13 20 30.03 1017 10 16 N/A
11:15 am 11:15 Sunny 84 29 75 24 74 74 S 9 15 30.03 1017 10 16 N/A
11:35 am 11:35 Sunny 86 30 75 24 70 70 SSW 9 15 30.03 1017 10 16 N/A
11:55 am 11:55 Sunny 86 30 75 24 70 70 S 10 17 30.03 1017 10 16 N/A
12:15 pm 12:15 Partly Cloudy 86 30 77 25 75 75 SSW 10 17 30.00 1016 10 16 N/A
12:35 pm 12:35 Sunny 86 30 75 24 70 70 SSW 12 19 30.00 1016 10 16 N/A
12:55 pm 12:55 Sunny 86 30 77 25 75 75 S 7 11 30.00 1016 10 16 N/A
1:15 pm 13:15 Sunny 88 31 77 25 70 70 S 8 13 29.94 1014 10 16 N/A
1:35 pm 13:35 Sunny 86 30 77 25 75 75 SSW 8 13 29.94 1014 10 16 N/A
1:55 pm 13:55 Sunny 86 30 77 25 75 75 S 6 9 29.94 1014 10 16 N/A
2:15 pm 14:15 Sunny 88 31 77 25 70 70 S 8 13 29.91 1013 10 16 N/A
2:35 pm 14:35 Sunny 88 31 77 25 70 70 SSW 10 17 29.91 1013 10 16 N/A
2:55 pm 14:55 Sunny 88 31 77 25 70 70 SSW 15 24 29.91 1013 10 16 N/A
3:15 pm 15:15 Sunny 88 31 79 26 75 75 S 8 13 29.91 1013 10 16 N/A
3:35 pm 15:35 Sunny 88 31 77 25 70 70 SSW 13 20 29.91 1013 10 16 N/A
3:55 pm 15:55 Sunny 88 31 79 26 75 75 S 7 11 29.88 1012 10 16 N/A
4:15 pm 16:15 Sunny 88 31 79 26 75 75 S 7 11 29.88 1012 10 16 N/A
4:35 pm 16:35 Sunny 88 31 79 26 75 75 S 8 13 29.88 1012 10 16 N/A
4:55 pm 16:55 Partly Cloudy 88 31 79 26 75 75 S 6 9 29.88 1012 10 16 N/A
5:15 pm 17:15 Mostly Cloudy 86 30 79 26 79 79 SSW 12 19 29.85 1011 10 16 N/A
5:35 pm 17:35 Cloudy 86 30 77 25 75 75 WSW 7 11 29.88 1012 10 16 N/A
5:55 pm 17:55 Cloudy with Rain 82 28 77 25 84 84 W 16 26 29.91 1013 5 8 N/A
6:15 pm 18:15 Cloudy 81 27 75 24 84 84 W 8 13 29.91 1013 10 16 N/A
6:35 pm 18:35 Cloudy 81 27 75 24 84 84 W 3 6 29.91 1013 10 16 N/A
6:55 pm 18:55 Cloudy 82 28 77 25 84 84 WSW 3 6 29.91 1013 10 16 N/A
7:15 pm 19:15 Mostly Cloudy 82 28 75 24 79 79 WSW 5 7 29.91 1013 10 16 N/A
7:35 pm 19:35 Partly Cloudy 81 27 75 24 84 84 W 5 7 29.91 1013 10 16 N/A
7:55 pm 19:55 Sunny 81 27 75 24 84 84 SW 12 19 29.91 1013 10 16 N/A
8:15 pm 20:15 Mostly Cloudy 81 27 75 24 84 84 WSW 5 7 29.88 1012 10 16 N/A
8:35 pm 20:35 Mostly Cloudy 81 27 75 24 84 84 SW 9 15 29.88 1012 10 16 N/A
8:55 pm 20:55 Partly Cloudy 79 26 75 24 89 89 SW 5 7 29.88 1012 10 16 N/A
9:15 pm 21:15 Clear 81 27 73 23 79 79 SW 5 7 29.91 1013 10 16 N/A
9:35 pm 21:35 Clear 81 27 73 23 79 79 WSW 5 7 29.91 1013 10 16 N/A
9:55 pm 21:55 Partly Cloudy 79 26 73 23 84 84 SW 7 11 29.91 1013 10 16 N/A
10:15 pm 22:15 Partly Cloudy 79 26 73 23 84 84 SSW 13 20 29.91 1013 10 16 N/A
10:35 pm 22:35 Mostly Cloudy 79 26 73 23 84 84 SW 12 19 29.94 1014 10 16 N/A
10:55 pm 22:55 Cloudy 79 26 73 23 84 84 WSW 3 6 29.94 1014 10 16 N/A
11:15 pm 23:15 Cloudy 81 27 72 22 74 74 WNW 13 20 29.94 1014 10 16 N/A
11:35 pm 23:35 Cloudy 81 27 73 23 79 79 WNW 13 20 29.94 1014 10 16 N/A
11:55 pm 23:55 Cloudy 81 27 72 22 74 74 WNW 14 22 29.97 1015 10 16 N/A

Powered by AerisWeather